AURA (28376 NORAD) Tracking and Keplerian Element Data

This shows tracking and keplerian element data for the satellite.

Feedback or suggestion? Click here.




ElementValue
Catalog28376
NameAURA
Epoch Orbit9346
Epoch Day34.85575975
Epoch Year2025
RAAN344.6341
Inclination98.2797
Eccentricity0.0001704
Argument of Perigee81.1574
Mean Anonmoly278.9819
Mean Motion14.59894932
Decay Rate2.55E-05
L11 28376U 04026A 25034.85575975 .00002550 00000+0 54230-3 0 9991
L22 28376 98.2797 344.6341 0001704 81.1574 278.9819 14.59894932 93463



Live tracking and technical data element details for AURA (NORAD 28376). AURA can be tracked NOW for your location showing map with azimuth and elevation plus other details from your city location.







IsCatalogInMostPopularTable: catalog: 28376, numindb: 329
Update: records affected: 1



GetName: 28376 AURA

Hit Count: updated at: Sat, 17 May 2025 08:46:50 GMT